Flag for Australia Weather past 2 weeks in Adelaide, South Australia, Australia

Now
64 °F

Passing clouds.


Feels Like: 64 °F
Forecast: 59 / 72 °F
Wind: 8 mph from Southeast

Location: Adelaide Airport

Current Time: Mar 7, 2015 at 1:41:43 AM

Latest Report: Mar 7, 2015 at 12:30 AM


Visibility: N/A

Pressure: 30.01 "Hg

Humidity: 64%

Dew point: 52 °F

Location of AdelaideLocation

Historic Weather in Adelaide — Graph

°F

Adelaide temperature yesterday

Maximum temperature yesterday: 72 °F (at 1:00 PM)
Minimum temperature yesterday: 57 °F (at 12:00 AM)
Average temperature yesterday: 65 °F

Past Weeks' High & Low Weather Summary

 TemperatureHumidityPressure
High99 °F (Feb 21, 12:00 PM)83% (Feb 22, 6:00 AM)30.21 "Hg (Feb 22, 6:00 AM)
Low55 °F (Feb 25, 7:00 AM)19% (Feb 21, 5:30 PM)29.59 "Hg (Feb 28, 4:00 AM)
Average72 °F50%29.94 "Hg
* Reported Feb 19 11:30 PM — Midnight between Mar 6 and Mar 7, Adelaide, Weather by CustomWeather, © 2015

Note: Actual official high and low records may vary slightly from our data, if they occured in-between our weather recording intervals... More about our weather records

Advertising

Adelaide weather history for previous 24 hours

 ConditionsComfort  
Time TempWeatherWind HumidityBarometerVisibility
12:00 AM
Sat, Mar 7
64 °FPassing clouds.12 mph64%30.01 "HgN/A
11:30 PM
Fri, Mar 6
64 °FOvercast.9 mph68%30.04 "HgN/A
11:00 PM64 °FPassing clouds.9 mph64%30.01 "HgN/A
10:30 PM66 °FPassing clouds.9 mph60%30.01 "HgN/A
10:00 PM66 °FPassing clouds.9 mph64%30.01 "HgN/A
9:30 PM66 °FPassing clouds.9 mph64%30.01 "HgN/A
9:00 PM66 °FPassing clouds.9 mph68%30.01 "HgN/A
8:30 PM66 °FPassing clouds.13 mph68%30.01 "HgN/A
8:00 PM66 °FPassing clouds.12 mph68%30.01 "HgN/A
7:30 PM66 °FPassing clouds.13 mph64%30.01 "HgN/A
7:00 PM68 °FPassing clouds.17 mph60%30.01 "HgN/A
6:30 PM68 °FPassing clouds.17 mph60%30.01 "HgN/A
6:00 PM68 °FPassing clouds.16 mph60%30.01 "HgN/A
5:30 PM70 °FPassing clouds.16 mph57%29.98 "HgN/A
5:00 PM70 °FPassing clouds.17 mph53%30.01 "HgN/A
4:30 PM70 °FPassing clouds.17 mph53%30.01 "HgN/A
4:00 PM70 °FPassing clouds.16 mph50%30.01 "HgN/A
3:30 PM70 °FPassing clouds.17 mph53%30.01 "HgN/A
3:00 PM70 °FPassing clouds.17 mph50%30.04 "HgN/A
2:30 PM72 °FPassing clouds.18 mph50%30.04 "HgN/A
1:30 PM70 °FScattered clouds.17 mph53%30.07 "HgN/A
1:00 PM72 °FScattered clouds.20 mph50%30.07 "HgN/A
12:30 PM68 °FPartly sunny.18 mph56%30.07 "HgN/A
12:00 PM68 °FPartly sunny.15 mph56%30.09 "HgN/A
11:30 AM68 °FScattered clouds.14 mph56%30.09 "HgN/A
11:00 AM66 °FBroken clouds.13 mph60%30.09 "HgN/A
10:30 AM66 °FBroken clouds.13 mph60%30.09 "HgN/A
10:00 AM64 °FBroken clouds.15 mph64%30.09 "HgN/A
9:30 AM64 °FBroken clouds.13 mph64%30.09 "HgN/A
9:00 AM64 °FBroken clouds.14 mph64%30.09 "HgN/A
8:30 AM63 °FBroken clouds.13 mph68%30.09 "HgN/A
8:00 AM63 °FPartly sunny.15 mph68%30.09 "HgN/A
7:00 AM63 °FPassing clouds.14 mph64%30.09 "HgN/A
6:30 AM61 °FPassing clouds.13 mph63%30.09 "HgN/A
6:00 AM61 °FPassing clouds.14 mph68%30.09 "HgN/A
5:30 AM61 °FPassing clouds.15 mph68%30.09 "HgN/A
5:00 AM61 °FPassing clouds.14 mph63%30.09 "HgN/A
4:30 AM61 °FPassing clouds.16 mph63%30.09 "HgN/A
4:00 AM61 °FPassing clouds.12 mph68%30.09 "HgN/A
3:30 AM61 °FPassing clouds.15 mph63%30.09 "HgN/A
3:00 AM61 °FPassing clouds.2 mph63%30.09 "HgN/A
2:30 AM59 °FPassing clouds.7 mph63%30.12 "HgN/A
2:00 AM59 °FPassing clouds.8 mph63%30.12 "HgN/A
1:30 AM59 °FPassing clouds.8 mph63%30.15 "HgN/A
1:00 AM59 °FPassing clouds.9 mph63%30.15 "HgN/A
Weather by CustomWeather, © 2015

See weather overviewHow to use our weather pages